Location: Bondula
(6.3703°N, 10.6756°W)
Time: 21:42:52
(UTC+00:00)

Milstar 3 - Pass Details

Date: 22 October 2019
Orbit: 1107 x 5138 km, 28.1° (Epoch: 18 November)

Event Time Altitude Azimuth Distance (km) Brightness Sun altitude
Exits shadow 05:28:35 13° 316° (NW) 2,953 4.5 -15.6°
Maximum altitude 05:31:35 16° 344° (NNW) 2,595 4.5 -14.8°
Drops below altitude 10° 05:35:34 10° 22° (NNE) 2,954 5.2 -13.8°
Sets 05:39:37 0° 45° (NE) 4,019 6.2 -12.9°
